GPS BIIRM-1 (PRN 17)

Last updated on Sat Apr 13 2024 01:03:04 GMT+0100 (British Summer Time)

1 28874U 05038A 24103.33791078 -.00000047 00000+0 00000+0 0 9993 2 28874 55.5571 305.1240 0136403 283.8708 232.8994 2.00560010135872
UTC large
Height (km)
Speed (km/s)
/
Latitude / Longitude
Inclination (degrees)
Orbital Period (minutes)
Azimuth
Elevation
Range (km)
Doppler Factor

Next 0 passes for location: London (51.5072 / 0.1276)

Sorry there are no passes over London.